Weather in Borovka

Russia / Samara Oblast     54°01′00″N   51°17′45″E
temp.,
°C
wind,
m/s
gust,
m/s
humid.,
%
clouds,
%
prec.,
mm/h
press.,
hPa
HPBL,
m
18 may, tue
tue1801:00+19sse224916 0.0 101711
04:00+18nne11517 0.0 101711
07:00+21sse11490 0.0 101773
10:00+27sse11340 0.0 1017445
13:00+31nnw12220 0.0 10162652
16:00+30nne222053 0.0 10163258
19:00+26nne365020 0.0 1015101
22:00+21ene5136339 0.0 1016327
19 may, wed
wed1901:00+18e412665 0.0 1016301
04:00+16ene412705 0.0 1017274
07:00+18e511681 0.0 1017351
10:00+23e68490 0.0 1017954
13:00+26ese78410 0.0 10171628
16:00+26ese78400 0.0 10161891
19:00+24ese59550 0.0 1017336
22:00+18e311683 0.0 1018205
20 may, thu
thu2001:00+17ese5146295 0.0 1018335
04:00+16se5145880 0.0 1019363
07:00+17se613604 0.0 1019461
10:00+22se810460 0.0 1019969
13:00+24se89372 0.0 10181837
16:00+24se783415 0.0 10171967
19:00+21se511480 0.0 1017414
22:00+17se411597 0.0 1017231
21 may, fri
fri2101:00+14ese39620 0.0 1017155
04:00+13se41061100 0.0 1016206
07:00+16se496393 0.0 1017303
10:00+21s575413 0.0 1017796
13:00+24ssw464777 0.3 10172156
16:00+21wnw356277 0.6 1018257
19:00+20wsw226098 0.0 101821
22:00+17wsw226611 0.0 102019
22 may, sat
sat2201:00+15sw2270100 0.0 102013
04:00+15ssw227237 0.0 102214
07:00+18ssw246624 0.0 1023201
10:00+23sw455081 0.0 1023913
13:00+26wsw4643100 0.0 10232021
16:00+24nnw3458100 0.0 1022291
19:00+21nne3668100 0.0 1022264
22:00+16ne368496 0.0 1022101